Date AST Hour Ending, MW ,,,,,,,,,,,,,,,,,
3/1/2014 1:00,502,,,,,,,,,,,,,,,,,
3/1/2014 2:00,511,,,,,,,,,,,,,,,,,
3/1/2014 3:00,539,,,,,,,,,,,,,,,,,
3/1/2014 4:00,567,,,,,,,,,,,,,,,,,
3/1/2014 5:00,570,,,,,,,,,,,,,,,,,
3/1/2014 6:00,567,,,,,,,,,,,,,,,,,
3/1/2014 7:00,612,,,,,,,,,,,,,,,,,
3/1/2014 8:00,675,,,,,,,,,,,,,,,,,
3/1/2014 9:00,703,,,,,,,,,,,,,,,,,
3/1/2014 10:00,653,,,,,,,,,,,,,,,,,
3/1/2014 11:00,638,,,,,,,,,,,,,,,,,
3/1/2014 12:00,635,,,,,,,,,,,,,,,,,
3/1/2014 13:00,658,,,,,,,,,,,,,,,,,
3/1/2014 14:00,607,,,,,,,,,,,,,,,,,
3/1/2014 15:00,568,,,,,,,,,,,,,,,,,
3/1/2014 16:00,586,,,,,,,,,,,,,,,,,
3/1/2014 17:00,608,,,,,,,,,,,,,,,,,
3/1/2014 18:00,625,,,,,,,,,,,,,,,,,
3/1/2014 19:00,652,,,,,,,,,,,,,,,,,
3/1/2014 20:00,587,,,,,,,,,,,,,,,,,
3/1/2014 21:00,526,,,,,,,,,,,,,,,,,
3/1/2014 22:00,472,,,,,,,,,,,,,,,,,
3/1/2014 23:00,413,,,,,,,,,,,,,,,,,
3/2/2014 0:00,404,,,,,,,,,,,,,,,,,
3/2/2014 1:00,402,,,,,,,,,,,,,,,,,
3/2/2014 2:00,377,,,,,,,,,,,,,,,,,
3/2/2014 3:00,412,,,,,,,,,,,,,,,,,
3/2/2014 4:00,427,,,,,,,,,,,,,,,,,
3/2/2014 5:00,413,,,,,,,,,,,,,,,,,
3/2/2014 6:00,431,,,,,,,,,,,,,,,,,
3/2/2014 7:00,483,,,,,,,,,,,,,,,,,
3/2/2014 8:00,539,,,,,,,,,,,,,,,,,
3/2/2014 9:00,646,,,,,,,,,,,,,,,,,
3/2/2014 10:00,647,,,,,,,,,,,,,,,,,
3/2/2014 11:00,611,,,,,,,,,,,,,,,,,
3/2/2014 12:00,638,,,,,,,,,,,,,,,,,
3/2/2014 13:00,652,,,,,,,,,,,,,,,,,
3/2/2014 14:00,617,,,,,,,,,,,,,,,,,
3/2/2014 15:00,609,,,,,,,,,,,,,,,,,
3/2/2014 16:00,618,,,,,,,,,,,,,,,,,
3/2/2014 17:00,649,,,,,,,,,,,,,,,,,
3/2/2014 18:00,650,,,,,,,,,,,,,,,,,
3/2/2014 19:00,675,,,,,,,,,,,,,,,,,
3/2/2014 20:00,694,,,,,,,,,,,,,,,,,
3/2/2014 21:00,685,,,,,,,,,,,,,,,,,
3/2/2014 22:00,659,,,,,,,,,,,,,,,,,
3/2/2014 23:00,646,,,,,,,,,,,,,,,,,
3/3/2014 0:00,629,,,,,,,,,,,,,,,,,
3/3/2014 1:00,601,,,,,,,,,,,,,,,,,
3/3/2014 2:00,591,,,,,,,,,,,,,,,,,
3/3/2014 3:00,599,,,,,,,,,,,,,,,,,
3/3/2014 4:00,616,,,,,,,,,,,,,,,,,
3/3/2014 5:00,615,,,,,,,,,,,,,,,,,
3/3/2014 6:00,636,,,,,,,,,,,,,,,,,
3/3/2014 7:00,718,,,,,,,,,,,,,,,,,
3/3/2014 8:00,756,,,,,,,,,,,,,,,,,
3/3/2014 9:00,736,,,,,,,,,,,,,,,,,
3/3/2014 10:00,716,,,,,,,,,,,,,,,,,
3/3/2014 11:00,716,,,,,,,,,,,,,,,,,
3/3/2014 12:00,678,,,,,,,,,,,,,,,,,
3/3/2014 13:00,654,,,,,,,,,,,,,,,,,
3/3/2014 14:00,633,,,,,,,,,,,,,,,,,
3/3/2014 15:00,637,,,,,,,,,,,,,,,,,
3/3/2014 16:00,641,,,,,,,,,,,,,,,,,
3/3/2014 17:00,706,,,,,,,,,,,,,,,,,
3/3/2014 18:00,752,,,,,,,,,,,,,,,,,
3/3/2014 19:00,767,,,,,,,,,,,,,,,,,
3/3/2014 20:00,767,,,,,,,,,,,,,,,,,
3/3/2014 21:00,732,,,,,,,,,,,,,,,,,
3/3/2014 22:00,691,,,,,,,,,,,,,,,,,
3/3/2014 23:00,629,,,,,,,,,,,,,,,,,
3/4/2014 0:00,611,,,,,,,,,,,,,,,,,
3/4/2014 1:00,646,,,,,,,,,,,,,,,,,
3/4/2014 2:00,698,,,,,,,,,,,,,,,,,
3/4/2014 3:00,672,,,,,,,,,,,,,,,,,
3/4/2014 4:00,637,,,,,,,,,,,,,,,,,
3/4/2014 5:00,567,,,,,,,,,,,,,,,,,
3/4/2014 6:00,623,,,,,,,,,,,,,,,,,
3/4/2014 7:00,761,,,,,,,,,,,,,,,,,
3/4/2014 8:00,788,,,,,,,,,,,,,,,,,
3/4/2014 9:00,788,,,,,,,,,,,,,,,,,
3/4/2014 10:00,787,,,,,,,,,,,,,,,,,
3/4/2014 11:00,777,,,,,,,,,,,,,,,,,
3/4/2014 12:00,763,,,,,,,,,,,,,,,,,
3/4/2014 13:00,737,,,,,,,,,,,,,,,,,
3/4/2014 14:00,692,,,,,,,,,,,,,,,,,
3/4/2014 15:00,664,,,,,,,,,,,,,,,,,
3/4/2014 16:00,634,,,,,,,,,,,,,,,,,
3/4/2014 17:00,647,,,,,,,,,,,,,,,,,
3/4/2014 18:00,670,,,,,,,,,,,,,,,,,
3/4/2014 19:00,763,,,,,,,,,,,,,,,,,
3/4/2014 20:00,815,,,,,,,,,,,,,,,,,
3/4/2014 21:00,797,,,,,,,,,,,,,,,,,
3/4/2014 22:00,771,,,,,,,,,,,,,,,,,
3/4/2014 23:00,699,,,,,,,,,,,,,,,,,
3/5/2014 0:00,692,,,,,,,,,,,,,,,,,
3/5/2014 1:00,675,,,,,,,,,,,,,,,,,
3/5/2014 2:00,637,,,,,,,,,,,,,,,,,
3/5/2014 3:00,633,,,,,,,,,,,,,,,,,
3/5/2014 4:00,625,,,,,,,,,,,,,,,,,
3/5/2014 5:00,633,,,,,,,,,,,,,,,,,
3/5/2014 6:00,664,,,,,,,,,,,,,,,,,
3/5/2014 7:00,754,,,,,,,,,,,,,,,,,
3/5/2014 8:00,799,,,,,,,,,,,,,,,,,
3/5/2014 9:00,817,,,,,,,,,,,,,,,,,
3/5/2014 10:00,768,,,,,,,,,,,,,,,,,
3/5/2014 11:00,765,,,,,,,,,,,,,,,,,
3/5/2014 12:00,746,,,,,,,,,,,,,,,,,
3/5/2014 13:00,731,,,,,,,,,,,,,,,,,
3/5/2014 14:00,700,,,,,,,,,,,,,,,,,
3/5/2014 15:00,683,,,,,,,,,,,,,,,,,
3/5/2014 16:00,681,,,,,,,,,,,,,,,,,
3/5/2014 17:00,705,,,,,,,,,,,,,,,,,
3/5/2014 18:00,715,,,,,,,,,,,,,,,,,
3/5/2014 19:00,736,,,,,,,,,,,,,,,,,
3/5/2014 20:00,738,,,,,,,,,,,,,,,,,
3/5/2014 21:00,706,,,,,,,,,,,,,,,,,
3/5/2014 22:00,680,,,,,,,,,,,,,,,,,
3/5/2014 23:00,654,,,,,,,,,,,,,,,,,
3/6/2014 0:00,646,,,,,,,,,,,,,,,,,
3/6/2014 1:00,634,,,,,,,,,,,,,,,,,
3/6/2014 2:00,613,,,,,,,,,,,,,,,,,
3/6/2014 3:00,559,,,,,,,,,,,,,,,,,
3/6/2014 4:00,551,,,,,,,,,,,,,,,,,
3/6/2014 5:00,568,,,,,,,,,,,,,,,,,
3/6/2014 6:00,607,,,,,,,,,,,,,,,,,
3/6/2014 7:00,720,,,,,,,,,,,,,,,,,
3/6/2014 8:00,754,,,,,,,,,,,,,,,,,
3/6/2014 9:00,752,,,,,,,,,,,,,,,,,
3/6/2014 10:00,723,,,,,,,,,,,,,,,,,
3/6/2014 11:00,732,,,,,,,,,,,,,,,,,
3/6/2014 12:00,724,,,,,,,,,,,,,,,,,
3/6/2014 13:00,710,,,,,,,,,,,,,,,,,
3/6/2014 14:00,660,,,,,,,,,,,,,,,,,
3/6/2014 15:00,601,,,,,,,,,,,,,,,,,
3/6/2014 16:00,581,,,,,,,,,,,,,,,,,
3/6/2014 17:00,584,,,,,,,,,,,,,,,,,
3/6/2014 18:00,601,,,,,,,,,,,,,,,,,
3/6/2014 19:00,669,,,,,,,,,,,,,,,,,
3/6/2014 20:00,700,,,,,,,,,,,,,,,,,
3/6/2014 21:00,676,,,,,,,,,,,,,,,,,
3/6/2014 22:00,647,,,,,,,,,,,,,,,,,
3/6/2014 23:00,689,,,,,,,,,,,,,,,,,
3/7/2014 0:00,657,,,,,,,,,,,,,,,,,
3/7/2014 1:00,657,,,,,,,,,,,,,,,,,
3/7/2014 2:00,672,,,,,,,,,,,,,,,,,
3/7/2014 3:00,628,,,,,,,,,,,,,,,,,
3/7/2014 4:00,632,,,,,,,,,,,,,,,,,
3/7/2014 5:00,670,,,,,,,,,,,,,,,,,
3/7/2014 6:00,719,,,,,,,,,,,,,,,,,
3/7/2014 7:00,762,,,,,,,,,,,,,,,,,
3/7/2014 8:00,779,,,,,,,,,,,,,,,,,
3/7/2014 9:00,753,,,,,,,,,,,,,,,,,
3/7/2014 10:00,704,,,,,,,,,,,,,,,,,
3/7/2014 11:00,720,,,,,,,,,,,,,,,,,
3/7/2014 12:00,685,,,,,,,,,,,,,,,,,
3/7/2014 13:00,624,,,,,,,,,,,,,,,,,
3/7/2014 14:00,544,,,,,,,,,,,,,,,,,
3/7/2014 15:00,545,,,,,,,,,,,,,,,,,
3/7/2014 16:00,511,,,,,,,,,,,,,,,,,
3/7/2014 17:00,525,,,,,,,,,,,,,,,,,
3/7/2014 18:00,621,,,,,,,,,,,,,,,,,
3/7/2014 19:00,666,,,,,,,,,,,,,,,,,
3/7/2014 20:00,634,,,,,,,,,,,,,,,,,
3/7/2014 21:00,581,,,,,,,,,,,,,,,,,
3/7/2014 22:00,525,,,,,,,,,,,,,,,,,
3/7/2014 23:00,480,,,,,,,,,,,,,,,,,
3/8/2014 0:00,461,,,,,,,,,,,,,,,,,
3/8/2014 1:00,459,,,,,,,,,,,,,,,,,
3/8/2014 2:00,477,,,,,,,,,,,,,,,,,
3/8/2014 3:00,505,,,,,,,,,,,,,,,,,
3/8/2014 4:00,511,,,,,,,,,,,,,,,,,
3/8/2014 5:00,517,,,,,,,,,,,,,,,,,
3/8/2014 6:00,570,,,,,,,,,,,,,,,,,
3/8/2014 7:00,620,,,,,,,,,,,,,,,,,
3/8/2014 8:00,659,,,,,,,,,,,,,,,,,
3/8/2014 9:00,696,,,,,,,,,,,,,,,,,
3/8/2014 10:00,731,,,,,,,,,,,,,,,,,
3/8/2014 11:00,720,,,,,,,,,,,,,,,,,
3/8/2014 12:00,710,,,,,,,,,,,,,,,,,
3/8/2014 13:00,722,,,,,,,,,,,,,,,,,
3/8/2014 14:00,683,,,,,,,,,,,,,,,,,
3/8/2014 15:00,654,,,,,,,,,,,,,,,,,
3/8/2014 16:00,644,,,,,,,,,,,,,,,,,
3/8/2014 17:00,643,,,,,,,,,,,,,,,,,
3/8/2014 18:00,609,,,,,,,,,,,,,,,,,
3/8/2014 19:00,576,,,,,,,,,,,,,,,,,
3/8/2014 20:00,572,,,,,,,,,,,,,,,,,
3/8/2014 21:00,547,,,,,,,,,,,,,,,,,
3/8/2014 22:00,509,,,,,,,,,,,,,,,,,
3/8/2014 23:00,461,,,,,,,,,,,,,,,,,
3/9/2014 0:00,440,,,,,,,,,,,,,,,,,
3/9/2014 1:00,414,,,,,,,,,,,,,,,,,
3/9/2014 2:00,404,,,,,,,,,,,,,,,,,
3/9/2014 3:00,n/a,,,,,,,,,,,,,,,,,
3/9/2014 4:00,433,,,,,,,,,,,,,,,,,
3/9/2014 5:00,439,,,,,,,,,,,,,,,,,
3/9/2014 6:00,443,,,,,,,,,,,,,,,,,
3/9/2014 7:00,448,,,,,,,,,,,,,,,,,
3/9/2014 8:00,501,,,,,,,,,,,,,,,,,
3/9/2014 9:00,598,,,,,,,,,,,,,,,,,
3/9/2014 10:00,651,,,,,,,,,,,,,,,,,
3/9/2014 11:00,691,,,,,,,,,,,,,,,,,
3/9/2014 12:00,704,,,,,,,,,,,,,,,,,
3/9/2014 13:00,692,,,,,,,,,,,,,,,,,
3/9/2014 14:00,665,,,,,,,,,,,,,,,,,
3/9/2014 15:00,571,,,,,,,,,,,,,,,,,
3/9/2014 16:00,558,,,,,,,,,,,,,,,,,
3/9/2014 17:00,647,,,,,,,,,,,,,,,,,
3/9/2014 18:00,660,,,,,,,,,,,,,,,,,
3/9/2014 19:00,655,,,,,,,,,,,,,,,,,
3/9/2014 20:00,717,,,,,,,,,,,,,,,,,
3/9/2014 21:00,776,,,,,,,,,,,,,,,,,
3/9/2014 22:00,758,,,,,,,,,,,,,,,,,
3/9/2014 23:00,689,,,,,,,,,,,,,,,,,
3/10/2014 0:00,642,,,,,,,,,,,,,,,,,
3/10/2014 1:00,602,,,,,,,,,,,,,,,,,
3/10/2014 2:00,578,,,,,,,,,,,,,,,,,
3/10/2014 3:00,576,,,,,,,,,,,,,,,,,
3/10/2014 4:00,593,,,,,,,,,,,,,,,,,
3/10/2014 5:00,632,,,,,,,,,,,,,,,,,
3/10/2014 6:00,712,,,,,,,,,,,,,,,,,
3/10/2014 7:00,761,,,,,,,,,,,,,,,,,
3/10/2014 8:00,805,,,,,,,,,,,,,,,,,
3/10/2014 9:00,812,,,,,,,,,,,,,,,,,
3/10/2014 10:00,782,,,,,,,,,,,,,,,,,
3/10/2014 11:00,736,,,,,,,,,,,,,,,,,
3/10/2014 12:00,718,,,,,,,,,,,,,,,,,
3/10/2014 13:00,690,,,,,,,,,,,,,,,,,
3/10/2014 14:00,649,,,,,,,,,,,,,,,,,
3/10/2014 15:00,585,,,,,,,,,,,,,,,,,
3/10/2014 16:00,594,,,,,,,,,,,,,,,,,
3/10/2014 17:00,604,,,,,,,,,,,,,,,,,
3/10/2014 18:00,692,,,,,,,,,,,,,,,,,
3/10/2014 19:00,684,,,,,,,,,,,,,,,,,
3/10/2014 20:00,730,,,,,,,,,,,,,,,,,
3/10/2014 21:00,765,,,,,,,,,,,,,,,,,
3/10/2014 22:00,733,,,,,,,,,,,,,,,,,
3/10/2014 23:00,681,,,,,,,,,,,,,,,,,
3/11/2014 0:00,667,,,,,,,,,,,,,,,,,
3/11/2014 1:00,620,,,,,,,,,,,,,,,,,
3/11/2014 2:00,624,,,,,,,,,,,,,,,,,
3/11/2014 3:00,623,,,,,,,,,,,,,,,,,
3/11/2014 4:00,582,,,,,,,,,,,,,,,,,
3/11/2014 5:00,577,,,,,,,,,,,,,,,,,
3/11/2014 6:00,598,,,,,,,,,,,,,,,,,
3/11/2014 7:00,604,,,,,,,,,,,,,,,,,
3/11/2014 8:00,655,,,,,,,,,,,,,,,,,
3/11/2014 9:00,711,,,,,,,,,,,,,,,,,
3/11/2014 10:00,729,,,,,,,,,,,,,,,,,
3/11/2014 11:00,732,,,,,,,,,,,,,,,,,
3/11/2014 12:00,730,,,,,,,,,,,,,,,,,
3/11/2014 13:00,723,,,,,,,,,,,,,,,,,
3/11/2014 14:00,648,,,,,,,,,,,,,,,,,
3/11/2014 15:00,602,,,,,,,,,,,,,,,,,
3/11/2014 16:00,574,,,,,,,,,,,,,,,,,
3/11/2014 17:00,612,,,,,,,,,,,,,,,,,
3/11/2014 18:00,601,,,,,,,,,,,,,,,,,
3/11/2014 19:00,636,,,,,,,,,,,,,,,,,
3/11/2014 20:00,646,,,,,,,,,,,,,,,,,
3/11/2014 21:00,666,,,,,,,,,,,,,,,,,
3/11/2014 22:00,629,,,,,,,,,,,,,,,,,
3/11/2014 23:00,637,,,,,,,,,,,,,,,,,
3/12/2014 0:00,573,,,,,,,,,,,,,,,,,
3/12/2014 1:00,527,,,,,,,,,,,,,,,,,
3/12/2014 2:00,543,,,,,,,,,,,,,,,,,
3/12/2014 3:00,512,,,,,,,,,,,,,,,,,
3/12/2014 4:00,473,,,,,,,,,,,,,,,,,
3/12/2014 5:00,511,,,,,,,,,,,,,,,,,
3/12/2014 6:00,553,,,,,,,,,,,,,,,,,
3/12/2014 7:00,634,,,,,,,,,,,,,,,,,
3/12/2014 8:00,637,,,,,,,,,,,,,,,,,
3/12/2014 9:00,661,,,,,,,,,,,,,,,,,
3/12/2014 10:00,706,,,,,,,,,,,,,,,,,
3/12/2014 11:00,681,,,,,,,,,,,,,,,,,
3/12/2014 12:00,621,,,,,,,,,,,,,,,,,
3/12/2014 13:00,603,,,,,,,,,,,,,,,,,
3/12/2014 14:00,590,,,,,,,,,,,,,,,,,
3/12/2014 15:00,550,,,,,,,,,,,,,,,,,
3/12/2014 16:00,573,,,,,,,,,,,,,,,,,
3/12/2014 17:00,629,,,,,,,,,,,,,,,,,
3/12/2014 18:00,650,,,,,,,,,,,,,,,,,
3/12/2014 19:00,640,,,,,,,,,,,,,,,,,
3/12/2014 20:00,671,,,,,,,,,,,,,,,,,
3/12/2014 21:00,655,,,,,,,,,,,,,,,,,
3/12/2014 22:00,555,,,,,,,,,,,,,,,,,
3/12/2014 23:00,447,,,,,,,,,,,,,,,,,
3/13/2014 0:00,353,,,,,,,,,,,,,,,,,
3/13/2014 1:00,361,,,,,,,,,,,,,,,,,
3/13/2014 2:00,366,,,,,,,,,,,,,,,,,
3/13/2014 3:00,320,,,,,,,,,,,,,,,,,
3/13/2014 4:00,322,,,,,,,,,,,,,,,,,
3/13/2014 5:00,328,,,,,,,,,,,,,,,,,
3/13/2014 6:00,324,,,,,,,,,,,,,,,,,
3/13/2014 7:00,355,,,,,,,,,,,,,,,,,
3/13/2014 8:00,427,,,,,,,,,,,,,,,,,
3/13/2014 9:00,508,,,,,,,,,,,,,,,,,
3/13/2014 10:00,603,,,,,,,,,,,,,,,,,
3/13/2014 11:00,667,,,,,,,,,,,,,,,,,
3/13/2014 12:00,735,,,,,,,,,,,,,,,,,
3/13/2014 13:00,787,,,,,,,,,,,,,,,,,
3/13/2014 14:00,772,,,,,,,,,,,,,,,,,
3/13/2014 15:00,741,,,,,,,,,,,,,,,,,
3/13/2014 16:00,752,,,,,,,,,,,,,,,,,
3/13/2014 17:00,766,,,,,,,,,,,,,,,,,
3/13/2014 18:00,770,,,,,,,,,,,,,,,,,
3/13/2014 19:00,758,,,,,,,,,,,,,,,,,
3/13/2014 20:00,769,,,,,,,,,,,,,,,,,
3/13/2014 21:00,791,,,,,,,,,,,,,,,,,
3/13/2014 22:00,763,,,,,,,,,,,,,,,,,
3/13/2014 23:00,713,,,,,,,,,,,,,,,,,
3/14/2014 0:00,699,,,,,,,,,,,,,,,,,
3/14/2014 1:00,647,,,,,,,,,,,,,,,,,
3/14/2014 2:00,600,,,,,,,,,,,,,,,,,
3/14/2014 3:00,604,,,,,,,,,,,,,,,,,
3/14/2014 4:00,606,,,,,,,,,,,,,,,,,
3/14/2014 5:00,600,,,,,,,,,,,,,,,,,
3/14/2014 6:00,643,,,,,,,,,,,,,,,,,
3/14/2014 7:00,731,,,,,,,,,,,,,,,,,
3/14/2014 8:00,773,,,,,,,,,,,,,,,,,
3/14/2014 9:00,807,,,,,,,,,,,,,,,,,
3/14/2014 10:00,789,,,,,,,,,,,,,,,,,
3/14/2014 11:00,770,,,,,,,,,,,,,,,,,
3/14/2014 12:00,755,,,,,,,,,,,,,,,,,
3/14/2014 13:00,752,,,,,,,,,,,,,,,,,
3/14/2014 14:00,753,,,,,,,,,,,,,,,,,
3/14/2014 15:00,733,,,,,,,,,,,,,,,,,
3/14/2014 16:00,691,,,,,,,,,,,,,,,,,
3/14/2014 17:00,693,,,,,,,,,,,,,,,,,
3/14/2014 18:00,673,,,,,,,,,,,,,,,,,
3/14/2014 19:00,676,,,,,,,,,,,,,,,,,
3/14/2014 20:00,662,,,,,,,,,,,,,,,,,
3/14/2014 21:00,706,,,,,,,,,,,,,,,,,
3/14/2014 22:00,711,,,,,,,,,,,,,,,,,
3/14/2014 23:00,674,,,,,,,,,,,,,,,,,
3/15/2014 0:00,606,,,,,,,,,,,,,,,,,
3/15/2014 1:00,544,,,,,,,,,,,,,,,,,
3/15/2014 2:00,508,,,,,,,,,,,,,,,,,
3/15/2014 3:00,445,,,,,,,,,,,,,,,,,
3/15/2014 4:00,418,,,,,,,,,,,,,,,,,
3/15/2014 5:00,423,,,,,,,,,,,,,,,,,
3/15/2014 6:00,450,,,,,,,,,,,,,,,,,
3/15/2014 7:00,472,,,,,,,,,,,,,,,,,
3/15/2014 8:00,481,,,,,,,,,,,,,,,,,
3/15/2014 9:00,522,,,,,,,,,,,,,,,,,
3/15/2014 10:00,548,,,,,,,,,,,,,,,,,
3/15/2014 11:00,561,,,,,,,,,,,,,,,,,
3/15/2014 12:00,505,,,,,,,,,,,,,,,,,
3/15/2014 13:00,523,,,,,,,,,,,,,,,,,
3/15/2014 14:00,502,,,,,,,,,,,,,,,,,
3/15/2014 15:00,468,,,,,,,,,,,,,,,,,
3/15/2014 16:00,467,,,,,,,,,,,,,,,,,
3/15/2014 17:00,466,,,,,,,,,,,,,,,,,
3/15/2014 18:00,477,,,,,,,,,,,,,,,,,
3/15/2014 19:00,473,,,,,,,,,,,,,,,,,
3/15/2014 20:00,485,,,,,,,,,,,,,,,,,
3/15/2014 21:00,477,,,,,,,,,,,,,,,,,
3/15/2014 22:00,423,,,,,,,,,,,,,,,,,
3/15/2014 23:00,391,,,,,,,,,,,,,,,,,
3/16/2014 0:00,353,,,,,,,,,,,,,,,,,
3/16/2014 1:00,313,,,,,,,,,,,,,,,,,
3/16/2014 2:00,332,,,,,,,,,,,,,,,,,
3/16/2014 3:00,306,,,,,,,,,,,,,,,,,
3/16/2014 4:00,296,,,,,,,,,,,,,,,,,
3/16/2014 5:00,287,,,,,,,,,,,,,,,,,
3/16/2014 6:00,273,,,,,,,,,,,,,,,,,
3/16/2014 7:00,279,,,,,,,,,,,,,,,,,
3/16/2014 8:00,375,,,,,,,,,,,,,,,,,
3/16/2014 9:00,442,,,,,,,,,,,,,,,,,
3/16/2014 10:00,468,,,,,,,,,,,,,,,,,
3/16/2014 11:00,479,,,,,,,,,,,,,,,,,
3/16/2014 12:00,497,,,,,,,,,,,,,,,,,
3/16/2014 13:00,466,,,,,,,,,,,,,,,,,
3/16/2014 14:00,450,,,,,,,,,,,,,,,,,
3/16/2014 15:00,428,,,,,,,,,,,,,,,,,
3/16/2014 16:00,402,,,,,,,,,,,,,,,,,
3/16/2014 17:00,423,,,,,,,,,,,,,,,,,
3/16/2014 18:00,445,,,,,,,,,,,,,,,,,
3/16/2014 19:00,456,,,,,,,,,,,,,,,,,
3/16/2014 20:00,528,,,,,,,,,,,,,,,,,
3/16/2014 21:00,602,,,,,,,,,,,,,,,,,
3/16/2014 22:00,607,,,,,,,,,,,,,,,,,
3/16/2014 23:00,536,,,,,,,,,,,,,,,,,
3/17/2014 0:00,477,,,,,,,,,,,,,,,,,
3/17/2014 1:00,434,,,,,,,,,,,,,,,,,
3/17/2014 2:00,518,,,,,,,,,,,,,,,,,
3/17/2014 3:00,545,,,,,,,,,,,,,,,,,
3/17/2014 4:00,566,,,,,,,,,,,,,,,,,
3/17/2014 5:00,582,,,,,,,,,,,,,,,,,
3/17/2014 6:00,586,,,,,,,,,,,,,,,,,
3/17/2014 7:00,687,,,,,,,,,,,,,,,,,
3/17/2014 8:00,776,,,,,,,,,,,,,,,,,
3/17/2014 9:00,779,,,,,,,,,,,,,,,,,
3/17/2014 10:00,742,,,,,,,,,,,,,,,,,
3/17/2014 11:00,746,,,,,,,,,,,,,,,,,
3/17/2014 12:00,764,,,,,,,,,,,,,,,,,
3/17/2014 13:00,742,,,,,,,,,,,,,,,,,
3/17/2014 14:00,726,,,,,,,,,,,,,,,,,
3/17/2014 15:00,721,,,,,,,,,,,,,,,,,
3/17/2014 16:00,731,,,,,,,,,,,,,,,,,
3/17/2014 17:00,712,,,,,,,,,,,,,,,,,
3/17/2014 18:00,713,,,,,,,,,,,,,,,,,
3/17/2014 19:00,661,,,,,,,,,,,,,,,,,
3/17/2014 20:00,676,,,,,,,,,,,,,,,,,
3/17/2014 21:00,726,,,,,,,,,,,,,,,,,
3/17/2014 22:00,694,,,,,,,,,,,,,,,,,
3/17/2014 23:00,638,,,,,,,,,,,,,,,,,
3/18/2014 0:00,586,,,,,,,,,,,,,,,,,
3/18/2014 1:00,553,,,,,,,,,,,,,,,,,
3/18/2014 2:00,575,,,,,,,,,,,,,,,,,
3/18/2014 3:00,538,,,,,,,,,,,,,,,,,
3/18/2014 4:00,441,,,,,,,,,,,,,,,,,
3/18/2014 5:00,492,,,,,,,,,,,,,,,,,
3/18/2014 6:00,561,,,,,,,,,,,,,,,,,
3/18/2014 7:00,648,,,,,,,,,,,,,,,,,
3/18/2014 8:00,698,,,,,,,,,,,,,,,,,
3/18/2014 9:00,692,,,,,,,,,,,,,,,,,
3/18/2014 10:00,719,,,,,,,,,,,,,,,,,
3/18/2014 11:00,728,,,,,,,,,,,,,,,,,
3/18/2014 12:00,729,,,,,,,,,,,,,,,,,
3/18/2014 13:00,709,,,,,,,,,,,,,,,,,
3/18/2014 14:00,690,,,,,,,,,,,,,,,,,
3/18/2014 15:00,645,,,,,,,,,,,,,,,,,
3/18/2014 16:00,585,,,,,,,,,,,,,,,,,
3/18/2014 17:00,572,,,,,,,,,,,,,,,,,
3/18/2014 18:00,587,,,,,,,,,,,,,,,,,
3/18/2014 19:00,582,,,,,,,,,,,,,,,,,
3/18/2014 20:00,651,,,,,,,,,,,,,,,,,
3/18/2014 21:00,700,,,,,,,,,,,,,,,,,
3/18/2014 22:00,683,,,,,,,,,,,,,,,,,
3/18/2014 23:00,583,,,,,,,,,,,,,,,,,
3/19/2014 0:00,525,,,,,,,,,,,,,,,,,
3/19/2014 1:00,534,,,,,,,,,,,,,,,,,
3/19/2014 2:00,537,,,,,,,,,,,,,,,,,
3/19/2014 3:00,554,,,,,,,,,,,,,,,,,
3/19/2014 4:00,557,,,,,,,,,,,,,,,,,
3/19/2014 5:00,555,,,,,,,,,,,,,,,,,
3/19/2014 6:00,573,,,,,,,,,,,,,,,,,
3/19/2014 7:00,649,,,,,,,,,,,,,,,,,
3/19/2014 8:00,776,,,,,,,,,,,,,,,,,
3/19/2014 9:00,799,,,,,,,,,,,,,,,,,
3/19/2014 10:00,760,,,,,,,,,,,,,,,,,
3/19/2014 11:00,742,,,,,,,,,,,,,,,,,
3/19/2014 12:00,658,,,,,,,,,,,,,,,,,
3/19/2014 13:00,614,,,,,,,,,,,,,,,,,
3/19/2014 14:00,598,,,,,,,,,,,,,,,,,
3/19/2014 15:00,607,,,,,,,,,,,,,,,,,
3/19/2014 16:00,596,,,,,,,,,,,,,,,,,
3/19/2014 17:00,579,,,,,,,,,,,,,,,,,
3/19/2014 18:00,602,,,,,,,,,,,,,,,,,
3/19/2014 19:00,625,,,,,,,,,,,,,,,,,
3/19/2014 20:00,627,,,,,,,,,,,,,,,,,
3/19/2014 21:00,681,,,,,,,,,,,,,,,,,
3/19/2014 22:00,632,,,,,,,,,,,,,,,,,
3/19/2014 23:00,536,,,,,,,,,,,,,,,,,
3/20/2014 0:00,468,,,,,,,,,,,,,,,,,
3/20/2014 1:00,456,,,,,,,,,,,,,,,,,
3/20/2014 2:00,455,,,,,,,,,,,,,,,,,
3/20/2014 3:00,461,,,,,,,,,,,,,,,,,
3/20/2014 4:00,447,,,,,,,,,,,,,,,,,
3/20/2014 5:00,463,,,,,,,,,,,,,,,,,
3/20/2014 6:00,473,,,,,,,,,,,,,,,,,
3/20/2014 7:00,554,,,,,,,,,,,,,,,,,
3/20/2014 8:00,615,,,,,,,,,,,,,,,,,
3/20/2014 9:00,659,,,,,,,,,,,,,,,,,
3/20/2014 10:00,593,,,,,,,,,,,,,,,,,
3/20/2014 11:00,591,,,,,,,,,,,,,,,,,
3/20/2014 12:00,578,,,,,,,,,,,,,,,,,
3/20/2014 13:00,573,,,,,,,,,,,,,,,,,
3/20/2014 14:00,574,,,,,,,,,,,,,,,,,
3/20/2014 15:00,576,,,,,,,,,,,,,,,,,
3/20/2014 16:00,586,,,,,,,,,,,,,,,,,
3/20/2014 17:00,565,,,,,,,,,,,,,,,,,
3/20/2014 18:00,573,,,,,,,,,,,,,,,,,
3/20/2014 19:00,565,,,,,,,,,,,,,,,,,
3/20/2014 20:00,547,,,,,,,,,,,,,,,,,
3/20/2014 21:00,514,,,,,,,,,,,,,,,,,
3/20/2014 22:00,448,,,,,,,,,,,,,,,,,
3/20/2014 23:00,366,,,,,,,,,,,,,,,,,
3/21/2014 0:00,280,,,,,,,,,,,,,,,,,
3/21/2014 1:00,284,,,,,,,,,,,,,,,,,
3/21/2014 2:00,286,,,,,,,,,,,,,,,,,
3/21/2014 3:00,265,,,,,,,,,,,,,,,,,
3/21/2014 4:00,232,,,,,,,,,,,,,,,,,
3/21/2014 5:00,243,,,,,,,,,,,,,,,,,
3/21/2014 6:00,287,,,,,,,,,,,,,,,,,
3/21/2014 7:00,377,,,,,,,,,,,,,,,,,
3/21/2014 8:00,466,,,,,,,,,,,,,,,,,
3/21/2014 9:00,505,,,,,,,,,,,,,,,,,
3/21/2014 10:00,486,,,,,,,,,,,,,,,,,
3/21/2014 11:00,455,,,,,,,,,,,,,,,,,
3/21/2014 12:00,442,,,,,,,,,,,,,,,,,
3/21/2014 13:00,439,,,,,,,,,,,,,,,,,
3/21/2014 14:00,411,,,,,,,,,,,,,,,,,
3/21/2014 15:00,365,,,,,,,,,,,,,,,,,
3/21/2014 16:00,377,,,,,,,,,,,,,,,,,
3/21/2014 17:00,400,,,,,,,,,,,,,,,,,
3/21/2014 18:00,394,,,,,,,,,,,,,,,,,
3/21/2014 19:00,413,,,,,,,,,,,,,,,,,
3/21/2014 20:00,439,,,,,,,,,,,,,,,,,
3/21/2014 21:00,431,,,,,,,,,,,,,,,,,
3/21/2014 22:00,420,,,,,,,,,,,,,,,,,
3/21/2014 23:00,354,,,,,,,,,,,,,,,,,
3/22/2014 0:00,331,,,,,,,,,,,,,,,,,
3/22/2014 1:00,314,,,,,,,,,,,,,,,,,
3/22/2014 2:00,306,,,,,,,,,,,,,,,,,
3/22/2014 3:00,314,,,,,,,,,,,,,,,,,
3/22/2014 4:00,302,,,,,,,,,,,,,,,,,
3/22/2014 5:00,311,,,,,,,,,,,,,,,,,
3/22/2014 6:00,322,,,,,,,,,,,,,,,,,
3/22/2014 7:00,355,,,,,,,,,,,,,,,,,
3/22/2014 8:00,403,,,,,,,,,,,,,,,,,
3/22/2014 9:00,455,,,,,,,,,,,,,,,,,
3/22/2014 10:00,475,,,,,,,,,,,,,,,,,
3/22/2014 11:00,500,,,,,,,,,,,,,,,,,
3/22/2014 12:00,522,,,,,,,,,,,,,,,,,
3/22/2014 13:00,530,,,,,,,,,,,,,,,,,
3/22/2014 14:00,510,,,,,,,,,,,,,,,,,
3/22/2014 15:00,469,,,,,,,,,,,,,,,,,
3/22/2014 16:00,422,,,,,,,,,,,,,,,,,
3/22/2014 17:00,462,,,,,,,,,,,,,,,,,
3/22/2014 18:00,543,,,,,,,,,,,,,,,,,
3/22/2014 19:00,482,,,,,,,,,,,,,,,,,
3/22/2014 20:00,507,,,,,,,,,,,,,,,,,
3/22/2014 21:00,577,,,,,,,,,,,,,,,,,
3/22/2014 22:00,563,,,,,,,,,,,,,,,,,
3/22/2014 23:00,564,,,,,,,,,,,,,,,,,
3/23/2014 0:00,493,,,,,,,,,,,,,,,,,
3/23/2014 1:00,432,,,,,,,,,,,,,,,,,
3/23/2014 2:00,395,,,,,,,,,,,,,,,,,
3/23/2014 3:00,371,,,,,,,,,,,,,,,,,
3/23/2014 4:00,304,,,,,,,,,,,,,,,,,
3/23/2014 5:00,282,,,,,,,,,,,,,,,,,
3/23/2014 6:00,319,,,,,,,,,,,,,,,,,
3/23/2014 7:00,368,,,,,,,,,,,,,,,,,
3/23/2014 8:00,466,,,,,,,,,,,,,,,,,
3/23/2014 9:00,590,,,,,,,,,,,,,,,,,
3/23/2014 10:00,644,,,,,,,,,,,,,,,,,
3/23/2014 11:00,638,,,,,,,,,,,,,,,,,
3/23/2014 12:00,619,,,,,,,,,,,,,,,,,
3/23/2014 13:00,565,,,,,,,,,,,,,,,,,
3/23/2014 14:00,540,,,,,,,,,,,,,,,,,
3/23/2014 15:00,479,,,,,,,,,,,,,,,,,
3/23/2014 16:00,478,,,,,,,,,,,,,,,,,
3/23/2014 17:00,493,,,,,,,,,,,,,,,,,
3/23/2014 18:00,511,,,,,,,,,,,,,,,,,
3/23/2014 19:00,455,,,,,,,,,,,,,,,,,
3/23/2014 20:00,463,,,,,,,,,,,,,,,,,
3/23/2014 21:00,618,,,,,,,,,,,,,,,,,
3/23/2014 22:00,596,,,,,,,,,,,,,,,,,
3/23/2014 23:00,509,,,,,,,,,,,,,,,,,
3/24/2014 0:00,462,,,,,,,,,,,,,,,,,
3/24/2014 1:00,417,,,,,,,,,,,,,,,,,
3/24/2014 2:00,395,,,,,,,,,,,,,,,,,
3/24/2014 3:00,407,,,,,,,,,,,,,,,,,
3/24/2014 4:00,410,,,,,,,,,,,,,,,,,
3/24/2014 5:00,414,,,,,,,,,,,,,,,,,
3/24/2014 6:00,469,,,,,,,,,,,,,,,,,
3/24/2014 7:00,596,,,,,,,,,,,,,,,,,
3/24/2014 8:00,653,,,,,,,,,,,,,,,,,
3/24/2014 9:00,644,,,,,,,,,,,,,,,,,
3/24/2014 10:00,595,,,,,,,,,,,,,,,,,
3/24/2014 11:00,617,,,,,,,,,,,,,,,,,
3/24/2014 12:00,606,,,,,,,,,,,,,,,,,
3/24/2014 13:00,573,,,,,,,,,,,,,,,,,
3/24/2014 14:00,555,,,,,,,,,,,,,,,,,
3/24/2014 15:00,507,,,,,,,,,,,,,,,,,
3/24/2014 16:00,504,,,,,,,,,,,,,,,,,
3/24/2014 17:00,502,,,,,,,,,,,,,,,,,
3/24/2014 18:00,568,,,,,,,,,,,,,,,,,
3/24/2014 19:00,545,,,,,,,,,,,,,,,,,
3/24/2014 20:00,574,,,,,,,,,,,,,,,,,
3/24/2014 21:00,609,,,,,,,,,,,,,,,,,
3/24/2014 22:00,541,,,,,,,,,,,,,,,,,
3/24/2014 23:00,472,,,,,,,,,,,,,,,,,
3/25/2014 0:00,471,,,,,,,,,,,,,,,,,
3/25/2014 1:00,451,,,,,,,,,,,,,,,,,
3/25/2014 2:00,462,,,,,,,,,,,,,,,,,
3/25/2014 3:00,469,,,,,,,,,,,,,,,,,
3/25/2014 4:00,469,,,,,,,,,,,,,,,,,
3/25/2014 5:00,476,,,,,,,,,,,,,,,,,
3/25/2014 6:00,594,,,,,,,,,,,,,,,,,
3/25/2014 7:00,678,,,,,,,,,,,,,,,,,
3/25/2014 8:00,753,,,,,,,,,,,,,,,,,
3/25/2014 9:00,697,,,,,,,,,,,,,,,,,
3/25/2014 10:00,686,,,,,,,,,,,,,,,,,
3/25/2014 11:00,714,,,,,,,,,,,,,,,,,
3/25/2014 12:00,658,,,,,,,,,,,,,,,,,
3/25/2014 13:00,641,,,,,,,,,,,,,,,,,
3/25/2014 14:00,630,,,,,,,,,,,,,,,,,
3/25/2014 15:00,672,,,,,,,,,,,,,,,,,
3/25/2014 16:00,636,,,,,,,,,,,,,,,,,
3/25/2014 17:00,558,,,,,,,,,,,,,,,,,
3/25/2014 18:00,572,,,,,,,,,,,,,,,,,
3/25/2014 19:00,553,,,,,,,,,,,,,,,,,
3/25/2014 20:00,564,,,,,,,,,,,,,,,,,
3/25/2014 21:00,617,,,,,,,,,,,,,,,,,
3/25/2014 22:00,590,,,,,,,,,,,,,,,,,
3/25/2014 23:00,512,,,,,,,,,,,,,,,,,
3/26/2014 0:00,487,,,,,,,,,,,,,,,,,
3/26/2014 1:00,545,,,,,,,,,,,,,,,,,
3/26/2014 2:00,549,,,,,,,,,,,,,,,,,
3/26/2014 3:00,537,,,,,,,,,,,,,,,,,
3/26/2014 4:00,522,,,,,,,,,,,,,,,,,
3/26/2014 5:00,524,,,,,,,,,,,,,,,,,
3/26/2014 6:00,513,,,,,,,,,,,,,,,,,
3/26/2014 7:00,553,,,,,,,,,,,,,,,,,
3/26/2014 8:00,555,,,,,,,,,,,,,,,,,
3/26/2014 9:00,592,,,,,,,,,,,,,,,,,
3/26/2014 10:00,651,,,,,,,,,,,,,,,,,
3/26/2014 11:00,655,,,,,,,,,,,,,,,,,
3/26/2014 12:00,656,,,,,,,,,,,,,,,,,
3/26/2014 13:00,705,,,,,,,,,,,,,,,,,
3/26/2014 14:00,702,,,,,,,,,,,,,,,,,
3/26/2014 15:00,613,,,,,,,,,,,,,,,,,
3/26/2014 16:00,563,,,,,,,,,,,,,,,,,
3/26/2014 17:00,538,,,,,,,,,,,,,,,,,
3/26/2014 18:00,562,,,,,,,,,,,,,,,,,
3/26/2014 19:00,541,,,,,,,,,,,,,,,,,
3/26/2014 20:00,561,,,,,,,,,,,,,,,,,
3/26/2014 21:00,600,,,,,,,,,,,,,,,,,
3/26/2014 22:00,627,,,,,,,,,,,,,,,,,
3/26/2014 23:00,597,,,,,,,,,,,,,,,,,
3/27/2014 0:00,563,,,,,,,,,,,,,,,,,
3/27/2014 1:00,564,,,,,,,,,,,,,,,,,
3/27/2014 2:00,569,,,,,,,,,,,,,,,,,
3/27/2014 3:00,575,,,,,,,,,,,,,,,,,
3/27/2014 4:00,576,,,,,,,,,,,,,,,,,
3/27/2014 5:00,571,,,,,,,,,,,,,,,,,
3/27/2014 6:00,597,,,,,,,,,,,,,,,,,
3/27/2014 7:00,609,,,,,,,,,,,,,,,,,
3/27/2014 8:00,635,,,,,,,,,,,,,,,,,
3/27/2014 9:00,655,,,,,,,,,,,,,,,,,
3/27/2014 10:00,653,,,,,,,,,,,,,,,,,
3/27/2014 11:00,646,,,,,,,,,,,,,,,,,
3/27/2014 12:00,662,,,,,,,,,,,,,,,,,
3/27/2014 13:00,634,,,,,,,,,,,,,,,,,
3/27/2014 14:00,647,,,,,,,,,,,,,,,,,
3/27/2014 15:00,636,,,,,,,,,,,,,,,,,
3/27/2014 16:00,595,,,,,,,,,,,,,,,,,
3/27/2014 17:00,554,,,,,,,,,,,,,,,,,
3/27/2014 18:00,554,,,,,,,,,,,,,,,,,
3/27/2014 19:00,555,,,,,,,,,,,,,,,,,